When you browse on this site, cookies collect data to enhance your experience and personalize the content and advertising you see.
Visit our Privacy Policy to learn more. By continuing to use the site, you agree to this use of cookies and data.
  • In United Kingdom
  • List of Countries
  • For 7 days
  • Water Temperature
  • Satellite Maps
  • Weather Map
  • Weather Widgets
  • user-avatar
    Login

    Hourly Weather Phin

    Today, 18 February, Monday

    Time Temperature Precipitation Wind Pressure Humidity
    00:00 +24°C° 0 mm 1 mps 735 mmHg 64%
    01:00 +21°C° 0 mm 0 mps 735 mmHg 69%
    02:00 +21°C° 0 mm 0 mps 735 mmHg 71%
    03:00 +21°C° 0 mm 0 mps 735 mmHg 72%
    04:00 +20°C° 0 mm 0 mps 735 mmHg 74%
    05:00 +21°C° 0 mm 0 mps 735 mmHg 73%
    06:00 +21°C° 0 mm 0 mps 736 mmHg 72%
    07:00 +22°C° 0 mm 0 mps 736 mmHg 69%
    08:00 +25°C° 0 mm 1 mps 737 mmHg 64%
    09:00 +27°C° 0 mm 1 mps 737 mmHg 59%
    10:00 +28°C° 0 mm 2 mps 737 mmHg 53%
    11:00 +30°C° 0 mm 2 mps 737 mmHg 49%
    12:00 +31°C° 0 mm 3 mps 736 mmHg 45%
    13:00 +33°C° 0 mm 3 mps 736 mmHg 44%
    14:00 +33°C° 0 mm 3 mps 736 mmHg 42%
    15:00 +34°C° 0 mm 2 mps 735 mmHg 41%
    16:00 +34°C° 0 mm 2 mps 735 mmHg 39%
    17:00 +31°C° 0 mm 2 mps 735 mmHg 45%
    18:00 +29°C° 0 mm 1 mps 735 mmHg 51%
    19:00 +25°C° 0 mm 0 mps 735 mmHg 57%
    20:00 +24°C° 0 mm 0 mps 735 mmHg 59%
    21:00 +26°C° 0 mm 1 mps 736 mmHg 61%
    22:00 +25°C° 0 mm 1 mps 736 mmHg 62%
    23:00 +25°C° 0 mm 1 mps 736 mmHg 64%

    Tomorrow, 19 February, Tuesday

    Time Temperature Precipitation Wind Pressure Humidity
    00:00 +24°C° 0 mm 1 mps 736 mmHg 65%
    01:00 +24°C° 0 mm 1 mps 736 mmHg 67%
    02:00 +24°C° 0 mm 1 mps 736 mmHg 67%
    03:00 +23°C° 0 mm 1 mps 735 mmHg 67%
    04:00 +23°C° 0 mm 1 mps 735 mmHg 68%
    05:00 +23°C° 0 mm 1 mps 736 mmHg 68%
    06:00 +23°C° 0 mm 1 mps 736 mmHg 68%
    07:00 +23°C° 0 mm 1 mps 737 mmHg 67%
    08:00 +27°C° 0 mm 1 mps 737 mmHg 57%
    09:00 +30°C° 0 mm 2 mps 738 mmHg 47%
    10:00 +35°C° 0 mm 2 mps 738 mmHg 37%
    11:00 +36°C° 0 mm 2 mps 738 mmHg 34%
    12:00 +37°C° 0 mm 2 mps 737 mmHg 31%
    13:00 +38°C° 0 mm 2 mps 737 mmHg 27%
    14:00 +38°C° 0 mm 2 mps 736 mmHg 27%
    15:00 +38°C° 0 mm 2 mps 736 mmHg 26%
    16:00 +38°C° 0 mm 2 mps 735 mmHg 25%
    17:00 +34°C° 0 mm 1 mps 735 mmHg 31%
    18:00 +32°C° 0 mm 1 mps 736 mmHg 36%
    19:00 +29°C° 0 mm 1 mps 736 mmHg 41%
    20:00 +29°C° 0 mm 1 mps 736 mmHg 43%
    21:00 +28°C° 0 mm 1 mps 737 mmHg 45%
    22:00 +28°C° 0 mm 1 mps 738 mmHg 48%
    23:00 +27°C° 0 mm 1 mps 737 mmHg 52%

    Day after tomorrow, 20 February, Wednesday

    Time Temperature Precipitation Wind Pressure Humidity
    00:00 +26°C° 0 mm 1 mps 737 mmHg 56%
    01:00 +25°C° 0 mm 1 mps 737 mmHg 60%
    02:00 +25°C° 0 mm 1 mps 737 mmHg 62%
    03:00 +24°C° 0 mm 1 mps 737 mmHg 64%
    04:00 +24°C° 0 mm 1 mps 736 mmHg 67%
    05:00 +24°C° 0 mm 1 mps 737 mmHg 67%
    06:00 +24°C° 0 mm 1 mps 737 mmHg 67%
    07:00 +24°C° 0 mm 1 mps 738 mmHg 67%
    08:00 +28°C° 0 mm 1 mps 738 mmHg 55%
    09:00 +32°C° 0 mm 1 mps 739 mmHg 43%
    10:00 +36°C° 0 mm 2 mps 739 mmHg 31%
    11:00 +37°C° 0 mm 2 mps 739 mmHg 28%
    12:00 +39°C° 0 mm 2 mps 738 mmHg 25%
    13:00 +40°C° 0 mm 2 mps 737 mmHg 23%
    14:00 +40°C° 0 mm 2 mps 736 mmHg 22%
    15:00 +39°C° 0 mm 2 mps 736 mmHg 22%
    16:00 +39°C° 0 mm 2 mps 735 mmHg 22%
    17:00 +36°C° 0 mm 1 mps 735 mmHg 26%
    18:00 +33°C° 0 mm 1 mps 736 mmHg 31%
    19:00 +29°C° 0 mm 0 mps 736 mmHg 36%
    20:00 +30°C° 0 mm 1 mps 737 mmHg 40%
    21:00 +29°C° 0 mm 1 mps 737 mmHg 43%
    22:00 +28°C° 0 mm 1 mps 738 mmHg 47%
    23:00 +27°C° 0 mm 1 mps 737 mmHg 52%

    21 February, Thursday

    Time Temperature Precipitation Wind Pressure Humidity
    00:00 +26°C° 0 mm 1 mps 737 mmHg 58%
    01:00 +26°C° 0 mm 1 mps 737 mmHg 63%
    02:00 +25°C° 0 mm 1 mps 736 mmHg 65%
    03:00 +25°C° 0 mm 1 mps 736 mmHg 68%
    04:00 +24°C° 0 mm 1 mps 736 mmHg 70%
    05:00 +25°C° 0 mm 1 mps 736 mmHg 69%
    06:00 +23°C° 0 mm 0 mps 737 mmHg 68%
    07:00 +23°C° 0 mm 0 mps 737 mmHg 68%
    08:00 +28°C° 0 mm 1 mps 738 mmHg 56%
    09:00 +32°C° 0 mm 1 mps 738 mmHg 45%
    10:00 +36°C° 0 mm 2 mps 739 mmHg 33%
    11:00 +38°C° 0 mm 2 mps 738 mmHg 30%
    12:00 +39°C° 0 mm 2 mps 737 mmHg 27%
    13:00 +40°C° 0 mm 2 mps 736 mmHg 24%
    14:00 +40°C° 0 mm 2 mps 735 mmHg 24%
    15:00 +40°C° 0 mm 2 mps 734 mmHg 24%
    16:00 +40°C° 0 mm 1 mps 734 mmHg 24%
    17:00 +36°C° 0 mm 1 mps 734 mmHg 29%
    18:00 +34°C° 0 mm 1 mps 734 mmHg 33%
    19:00 +31°C° 0 mm 1 mps 735 mmHg 38%
    20:00 +30°C° 0 mm 1 mps 735 mmHg 42%
    21:00 +29°C° 0 mm 1 mps 735 mmHg 46%
    22:00 +29°C° 0 mm 1 mps 736 mmHg 50%
    23:00 +28°C° 0 mm 1 mps 736 mmHg 54%

    22 February, Friday

    Time Temperature Precipitation Wind Pressure Humidity
    00:00 +27°C° 0 mm 1 mps 735 mmHg 58%
    01:00 +26°C° 0 mm 1 mps 735 mmHg 62%
    02:00 +26°C° 0 mm 1 mps 735 mmHg 64%
    03:00 +23°C° 0 mm 0 mps 734 mmHg 66%
    04:00 +23°C° 0 mm 0 mps 734 mmHg 68%
    05:00 +23°C° 0 mm 0 mps 735 mmHg 67%
    06:00 +25°C° 0 mm 1 mps 735 mmHg 66%
    07:00 +25°C° 0 mm 1 mps 736 mmHg 66%
    08:00 +29°C° 0 mm 1 mps 737 mmHg 54%
    09:00 +33°C° 0 mm 1 mps 737 mmHg 43%
    10:00 +37°C° 0 mm 1 mps 738 mmHg 32%
    11:00 +39°C° 0 mm 1 mps 737 mmHg 29%
    12:00 +41°C° 0 mm 1 mps 736 mmHg 25%
    13:00 +42°C° 0 mm 1 mps 735 mmHg 22%
    14:00 +40°C° 0 mm 1 mps 735 mmHg 26%
    15:00 +37°C° 0 mm 1 mps 734 mmHg 30%
    16:00 +33°C° 0 mm 0 mps 734 mmHg 34%
    17:00 +34°C° 0 mm 1 mps 734 mmHg 40%
    18:00 +32°C° 0 mm 1 mps 735 mmHg 46%
    19:00 +31°C° 0 mm 2 mps 735 mmHg 52%
    20:00 +30°C° 0 mm 2 mps 735 mmHg 62%
    21:00 +28°C° 0 mm 2 mps 735 mmHg 71%
    22:00 +27°C° 0 mm 1 mps 736 mmHg 81%
    23:00 +26°C° 0 mm 1 mps 735 mmHg 84%

    23 February, Saturday

    Time Temperature Precipitation Wind Pressure Humidity
    00:00 +25°C° 0 mm 1 mps 735 mmHg 87%
    01:00 +24°C° 0 mm 1 mps 735 mmHg 90%
    02:00 +24°C° 0 mm 1 mps 735 mmHg 90%
    03:00 +24°C° 0 mm 1 mps 735 mmHg 90%
    04:00 +24°C° 0 mm 1 mps 734 mmHg 91%
    05:00 +24°C° 0 mm 1 mps 735 mmHg 88%
    06:00 +24°C° 0 mm 1 mps 736 mmHg 85%
    07:00 +24°C° 0 mm 1 mps 736 mmHg 82%
    08:00 +28°C° 0 mm 1 mps 737 mmHg 67%
    09:00 +32°C° 0 mm 1 mps 737 mmHg 52%
    10:00 +36°C° 0 mm 1 mps 737 mmHg 37%
    11:00 +37°C° 0 mm 1 mps 737 mmHg 33%
    12:00 +39°C° 0 mm 1 mps 736 mmHg 30%
    13:00 +40°C° 0 mm 2 mps 735 mmHg 27%
    14:00 +40°C° 0 mm 1 mps 734 mmHg 27%
    15:00 +39°C° 0 mm 1 mps 734 mmHg 28%
    16:00 +36°C° 0 mm 0 mps 733 mmHg 28%
    17:00 +34°C° 0 mm 0 mps 734 mmHg 33%
    18:00 +32°C° 0 mm 0 mps 734 mmHg 37%
    19:00 +30°C° 0 mm 0 mps 734 mmHg 42%
    20:00 +31°C° 0 mm 1 mps 735 mmHg 47%
    21:00 +30°C° 0 mm 1 mps 735 mmHg 52%
    22:00 +29°C° 0 mm 1 mps 735 mmHg 57%
    23:00 +28°C° 0 mm 1 mps 735 mmHg 63%
    Show more